CW8504 Weather Reports


Display with metric or nautical units.
time (UTC)temp
F
wind
direction
speed
MPH
gust
MPH
rain 1hr
in
rain 24hr
in
rain mn
in
humidity
%
barometer
mb
20260509155403 57 236 5.0 12.0 0.00 0.00 0.00 22 1018.6
20260509154904 56 276 4.0 12.0 0.00 0.00 0.00 23 1018.5
20260509154404 56 257 3.0 9.0 0.00 0.00 0.00 23 1018.5
20260508190907 65 231 5.0 10.0 0.00 0.00 0.00 17 1016.2
20260508190404 65 227 1.0 12.0 0.00 0.00 0.00 19 1016.3
20260508185904 65 244 2.0 6.0 0.00 0.00 0.00 18 1016.3
20260508185404 65 220 1.0 8.0 0.00 0.00 0.00 18 1016.3
20260508184904 66 228 7.0 12.0 0.00 0.00 0.00 18 1016.4
20260508184404 66 214 4.0 9.0 0.00 0.00 0.00 17 1016.3
20260508183904 66 218 6.0 12.0 0.00 0.00 0.00 17 1016.3
20260508183404 67 235 6.0 13.0 0.00 0.00 0.00 17 1016.4
20260508182407 67 212 5.0 10.0 0.00 0.00 0.00 17 1016.4
20260508180404 66 198 1.0 5.0 0.00 0.00 0.00 17 1016.7
20260508175904 67 271 1.0 6.0 0.00 0.00 0.00 18 1016.7
20260508175404 66 11 0.0 3.0 0.00 0.00 0.00 17 1016.7
20260508174404 66 268 0.0 3.0 0.00 0.00 0.00 19 1016.7
20260508173904 65 180 0.0 2.0 0.00 0.00 0.00 21 1016.8
20260508173404 65 210 0.0 3.0 0.00 0.00 0.00 20 1016.8
20260508172905 65 233 4.0 6.0 0.00 0.00 0.00 20 1016.9
20260508172403 65 256 0.0 3.0 0.00 0.00 0.00 21 1017.0
20260508171911 64 224 0.0 6.0 0.00 0.00 0.00 22 1017.1
20260508171404 64 228 0.0 0.0 0.00 0.00 0.00 22 1017.1
20260508170904 64 228 0.0 0.0 0.00 0.00 0.00 23 1017.2
20260508170403 63 230 0.0 0.0 0.00 0.00 0.00 25 1017.2
20260508165404 62 247 0.0 0.0 0.00 0.00 0.00 26 1017.2
20260508164907 62 28 0.0 0.0 0.00 0.00 0.00 31 1017.2
20260508163904 60 28 0.0 0.0 0.00 0.00 0.00 32 1017.3
20260508163404 60 30 0.0 0.0 0.00 0.00 0.00 33 1017.3
20260508162904 59 30 0.0 0.0 0.00 0.00 0.00 32 1017.4
20260508162404 59 30 0.0 0.0 0.00 0.00 0.00 33 1017.5
20260508161904 59 30 0.0 0.0 0.00 0.00 0.00 36 1017.6
20260508161404 58 30 0.0 0.0 0.00 0.00 0.00 35 1017.5
20260508160904 57 30 0.0 0.0 0.00 0.00 0.00 36 1017.6
20260508160404 57 30 0.0 0.0 0.00 0.00 0.00 38 1017.6